• In Uzbekistan
  • List of Countries
  • For 7 days
  • Water Temperature
  • Weather Map
  • Weather Widgets
  • user-avatar
    Login

    Hourly Weather Mongu

    Today, 2 April, Thursday

    Time Temperature Precipitation Wind Pressure Humidity
    00:00 +24°C° 0 mm 2 mps 673 mmHg 75%
    01:00 +23°C° 0 mm 2 mps 673 mmHg 77%
    02:00 +22°C° 0 mm 1 mps 673 mmHg 80%
    03:00 +22°C° 0 mm 1 mps 673 mmHg 79%
    04:00 +21°C° 0 mm 1 mps 673 mmHg 79%
    05:00 +21°C° 0 mm 1 mps 672 mmHg 78%
    06:00 +21°C° 0 mm 2 mps 673 mmHg 77%
    07:00 +21°C° 0 mm 2 mps 674 mmHg 76%
    08:00 +23°C° 0 mm 2 mps 674 mmHg 75%
    09:00 +25°C° 0 mm 3 mps 675 mmHg 69%
    10:00 +27°C° 0 mm 4 mps 675 mmHg 62%
    11:00 +29°C° 0 mm 4 mps 675 mmHg 55%
    12:00 +29°C° 0 mm 4 mps 675 mmHg 51%
    13:00 +30°C° 0 mm 4 mps 674 mmHg 48%
    14:00 +30°C° 0 mm 4 mps 674 mmHg 44%
    15:00 +30°C° 0 mm 4 mps 673 mmHg 48%
    16:00 +29°C° 0 mm 3 mps 673 mmHg 51%
    17:00 +29°C° 0 mm 3 mps 673 mmHg 55%
    18:00 +27°C° 0 mm 3 mps 673 mmHg 60%
    19:00 +25°C° 0 mm 2 mps 673 mmHg 65%
    20:00 +24°C° 0 mm 2 mps 673 mmHg 71%
    21:00 +23°C° 0 mm 2 mps 673 mmHg 72%
    22:00 +23°C° 0 mm 2 mps 674 mmHg 74%
    23:00 +21°C° 0 mm 2 mps 674 mmHg 76%

    Tomorrow, 3 April, Friday

    Time Temperature Precipitation Wind Pressure Humidity
    00:00 +21°C° 0 mm 2 mps 674 mmHg 78%
    01:00 +20°C° 0 mm 2 mps 674 mmHg 79%
    02:00 +20°C° 0 mm 3 mps 674 mmHg 80%
    03:00 +20°C° 0 mm 2 mps 674 mmHg 81%
    04:00 +19°C° 0 mm 2 mps 674 mmHg 82%
    05:00 +19°C° 0 mm 2 mps 674 mmHg 83%
    06:00 +19°C° 0 mm 3 mps 674 mmHg 79%
    07:00 +20°C° 0 mm 3 mps 675 mmHg 75%
    08:00 +20°C° 0 mm 4 mps 675 mmHg 71%
    09:00 +22°C° 0 mm 4 mps 675 mmHg 66%
    10:00 +23°C° 0 mm 4 mps 676 mmHg 61%
    11:00 +26°C° 0 mm 4 mps 676 mmHg 56%
    12:00 +27°C° 0 mm 4 mps 676 mmHg 53%
    13:00 +28°C° 0 mm 3 mps 675 mmHg 51%
    14:00 +29°C° 0 mm 3 mps 675 mmHg 48%
    15:00 +29°C° 0 mm 3 mps 674 mmHg 50%
    16:00 +28°C° 0 mm 2 mps 674 mmHg 52%
    17:00 +28°C° 0 mm 2 mps 673 mmHg 53%
    18:00 +27°C° 0 mm 2 mps 674 mmHg 58%
    19:00 +25°C° 0 mm 2 mps 674 mmHg 62%
    20:00 +23°C° 0 mm 2 mps 674 mmHg 66%
    21:00 +23°C° 0 mm 2 mps 674 mmHg 69%
    22:00 +21°C° 0 mm 3 mps 674 mmHg 71%
    23:00 +20°C° 0 mm 3 mps 674 mmHg 74%

    Day after tomorrow, 4 April, Saturday

    Time Temperature Precipitation Wind Pressure Humidity
    00:00 +20°C° 0 mm 3 mps 674 mmHg 74%
    01:00 +20°C° 0 mm 3 mps 674 mmHg 74%
    02:00 +19°C° 0 mm 2 mps 674 mmHg 74%
    03:00 +18°C° 0 mm 2 mps 674 mmHg 76%
    04:00 +18°C° 0 mm 2 mps 673 mmHg 78%
    05:00 +17°C° 0 mm 2 mps 673 mmHg 80%
    06:00 +18°C° 0 mm 2 mps 674 mmHg 79%
    07:00 +19°C° 0 mm 2 mps 675 mmHg 78%
    08:00 +20°C° 0 mm 2 mps 676 mmHg 76%
    09:00 +22°C° 0 mm 3 mps 676 mmHg 69%
    10:00 +24°C° 0 mm 3 mps 676 mmHg 62%
    11:00 +26°C° 0 mm 3 mps 676 mmHg 55%
    12:00 +27°C° 0 mm 3 mps 676 mmHg 50%
    13:00 +28°C° 0 mm 3 mps 675 mmHg 45%
    14:00 +29°C° 0 mm 2 mps 675 mmHg 40%
    15:00 +29°C° 0 mm 2 mps 675 mmHg 42%
    16:00 +29°C° 0 mm 1 mps 674 mmHg 44%
    17:00 +29°C° 0 mm 1 mps 674 mmHg 45%
    18:00 +26°C° 0 mm 1 mps 674 mmHg 53%
    19:00 +24°C° 0 mm 1 mps 674 mmHg 61%
    20:00 +22°C° 0 mm 1 mps 674 mmHg 69%
    21:00 +21°C° 0 mm 1 mps 674 mmHg 73%
    22:00 +21°C° 0 mm 1 mps 674 mmHg 77%
    23:00 +18°C° 0 mm 0 mps 674 mmHg 82%

    5 April, Sunday

    Time Temperature Precipitation Wind Pressure Humidity
    00:00 +18°C° 0 mm 0 mps 674 mmHg 83%
    01:00 +18°C° 0 mm 0 mps 674 mmHg 84%
    02:00 +17°C° 0 mm 0 mps 674 mmHg 85%
    03:00 +17°C° 0 mm 0 mps 674 mmHg 86%
    04:00 +17°C° 0 mm 0 mps 674 mmHg 86%
    05:00 +17°C° 0 mm 0 mps 673 mmHg 87%
    06:00 +20°C° 0 mm 1 mps 674 mmHg 84%
    07:00 +21°C° 0 mm 1 mps 675 mmHg 81%
    08:00 +21°C° 0 mm 1 mps 676 mmHg 78%
    09:00 +24°C° 0 mm 2 mps 676 mmHg 69%
    10:00 +26°C° 0 mm 2 mps 676 mmHg 60%
    11:00 +28°C° 0 mm 2 mps 677 mmHg 52%
    12:00 +29°C° 0 mm 2 mps 676 mmHg 47%
    13:00 +30°C° 0 mm 2 mps 676 mmHg 43%
    14:00 +31°C° 0 mm 1 mps 675 mmHg 38%
    15:00 +31°C° 0 mm 1 mps 674 mmHg 41%
    16:00 +30°C° 0 mm 1 mps 674 mmHg 44%
    17:00 +30°C° 0 mm 1 mps 674 mmHg 46%
    18:00 +28°C° 0 mm 1 mps 674 mmHg 52%
    19:00 +26°C° 0 mm 1 mps 673 mmHg 58%
    20:00 +23°C° 0 mm 1 mps 673 mmHg 64%
    21:00 +23°C° 0 mm 1 mps 674 mmHg 67%
    22:00 +22°C° 0 mm 1 mps 674 mmHg 70%
    23:00 +19°C° 0 mm 0 mps 674 mmHg 74%

    6 April, Monday

    Time Temperature Precipitation Wind Pressure Humidity
    00:00 +19°C° 0 mm 0 mps 674 mmHg 75%
    01:00 +21°C° 0 mm 1 mps 674 mmHg 76%
    02:00 +20°C° 0 mm 1 mps 674 mmHg 77%
    03:00 +20°C° 0 mm 1 mps 673 mmHg 79%
    04:00 +20°C° 0 mm 1 mps 673 mmHg 80%
    05:00 +19°C° 0 mm 1 mps 673 mmHg 82%
    06:00 +20°C° 0 mm 1 mps 674 mmHg 80%
    07:00 +21°C° 0 mm 1 mps 674 mmHg 79%
    08:00 +22°C° 0 mm 1 mps 675 mmHg 77%
    09:00 +25°C° 0 mm 1 mps 675 mmHg 68%
    10:00 +27°C° 0 mm 1 mps 676 mmHg 58%
    11:00 +29°C° 0 mm 1 mps 676 mmHg 49%
    12:00 +30°C° 0 mm 1 mps 675 mmHg 45%
    13:00 +31°C° 0 mm 1 mps 675 mmHg 42%
    14:00 +32°C° 0 mm 1 mps 674 mmHg 38%
    15:00 +31°C° 0 mm 1 mps 674 mmHg 41%
    16:00 +31°C° 0 mm 1 mps 673 mmHg 44%
    17:00 +30°C° 0 mm 2 mps 673 mmHg 47%
    18:00 +28°C° 0 mm 1 mps 673 mmHg 50%
    19:00 +26°C° 0 mm 1 mps 673 mmHg 52%
    20:00 +25°C° 0 mm 1 mps 673 mmHg 55%
    21:00 +24°C° 0 mm 1 mps 673 mmHg 55%
    22:00 +24°C° 0 mm 1 mps 673 mmHg 56%
    23:00 +24°C° 0 mm 1 mps 674 mmHg 56%

    7 April, Tuesday

    Time Temperature Precipitation Wind Pressure Humidity
    00:00 +24°C° 0 mm 1 mps 673 mmHg 58%
    01:00 +23°C° 0 mm 1 mps 673 mmHg 60%
    02:00 +23°C° 0 mm 1 mps 673 mmHg 61%
    03:00 +23°C° 0 mm 1 mps 673 mmHg 63%
    04:00 +20°C° 0 mm 0 mps 673 mmHg 65%
    05:00 +20°C° 0 mm 0 mps 672 mmHg 67%
    06:00 +20°C° 0 mm 0 mps 673 mmHg 68%
    07:00 +23°C° 0 mm 1 mps 673 mmHg 68%
    08:00 +23°C° 0 mm 1 mps 674 mmHg 69%
    09:00 +25°C° 0 mm 1 mps 674 mmHg 62%
    10:00 +27°C° 0 mm 2 mps 675 mmHg 56%
    11:00 +29°C° 0 mm 2 mps 675 mmHg 50%
    12:00 +30°C° 0 mm 2 mps 675 mmHg 46%
    13:00 +31°C° 0 mm 1 mps 674 mmHg 42%
    14:00 +30°C° 0 mm 0 mps 673 mmHg 38%
    15:00 +29°C° 0 mm 0 mps 673 mmHg 40%
    16:00 +29°C° 0 mm 0 mps 673 mmHg 42%
    17:00 +28°C° 0 mm 0 mps 672 mmHg 44%
    18:00 +29°C° 0 mm 1 mps 672 mmHg 47%
    19:00 +27°C° 0 mm 1 mps 673 mmHg 49%
    20:00 +26°C° 0 mm 1 mps 673 mmHg 52%
    21:00 +26°C° 0 mm 1 mps 673 mmHg 53%
    22:00 +25°C° 0 mm 1 mps 673 mmHg 54%
    23:00 +23°C° 0 mm 0 mps 674 mmHg 55%
    Show more